User: anonymous   Login
Location: Long Point Provincial Park
(42.5794°N, 80.4103°W)
Time: 00:35:21
(UTC-05:00)
Language:

Iridium 19 - Orbit

View from above orbital plane
View from above orbital plane
View from above satellite
View from above satellite

Ground track
Ground track

The orbit data is extracted from the following two-line orbital elements,

1 24965U 97056A   18051.83080658  .00249428 -11035-5  60321-3 0  9996
2 24965  86.3879 208.1622 0240747 234.3549 123.5089 15.62017866 69087
Epoch (UTC): 20 February 2018 19:56:21
Eccentricity: 0.0240747
inclination: 86.3879°
perigee height: 219 km
apogee height: 544 km
right ascension of ascending node: 208.1622°
argument of perigee: 234.3549°
revolutions per day: 15.62017866
mean anomaly at epoch: 123.5089°
orbit number at epoch: 6908

The dashed part of the orbit path shows where the satellite is in the earth's shadow,  

DLR